Delta Virtual Airport Information Service

Nashville International Airport

ICAO: KBNA Country: United States
Latitude: 36.1245 Longitude: -86.6781
Latest Arrival : DAC1021 (KMSY-KBNA) Latest Departure : AAL2071 (KBNA-KCLT)


WX CaptureLIVE
Data provided by noaa.gov | Fetched at 10:17:11

METAR : KBNA 151453Z 02009KT 10SM CLR 27/11 A3003 RMK AO2 SLP163 T02670111 51006 $

TAF : KBNA 151131Z 1512/1612 36008KT P6SM FEW070 FM151700 01011G19KT P6SM SKC FM160100 35004KT P6SM FEW250


Runway Data for KBNA
Data provided by openaviationdata.com

Runway ID Mag Var Hdg Length Elevation Surface ILS Freq ILS Id ILS Slope
02L -1 19° 7711 ft 545 ft Concrete 109.9 IBNA 3
02R -1 19° 8009 ft 545 ft Concrete 111.75 IUQU 3
02C -1 19° 8010 ft 545 ft Concrete 110.75 IEZN 3
13 -1 135° 11030 ft 545 ft Asphalt -- -- --
20L -1 199° 8009 ft 545 ft Concrete 109.35 ISSX 3
20R -1 199° 7711 ft 545 ft Concrete 111.3 IVIY 3
20C -1 199° 8010 ft 545 ft Concrete -- -- --
31 -1 315° 11030 ft 545 ft Asphalt 111.95 IPNO 3

Nashville International Airport, United States
Use only for reference purposes



Not for navigational purposes.